LEZLLEJR

Guest
Details From LEZL - Sevilla
To LEJR - Jerez
Flight Number -
Tags Routegen Generated
Created
Modified
Stats Distance 46 nm / 86 km
Max Altitude 100 ft / 30 m
Waypoints 5
Social Downloads 1
Likes 0
Share VATSIM

Download

Looking for another format? Having issues loading an existing format? Contact us
Advertisement - Login to hide

Notes

Departing runway 8 LEZL. Arriving runway 2 LEJR.

Route

LEZL +37.42_-005.78 +37.12_-005.90 +36.82_-006.02 LEJR

ID Type Via Altitude Latitude Longitude Leg Dist Tot Dist Heading (true) Name
O LEZL APT - 0 ft / 0 m 37.41800˚ -5.87410˚ - 0 nm - -
+37.42_-005.78 LATLON - 100 ft / 30 m 37.41826˚ -5.78299˚ 4 nm 4 nm 90° / 90° -
+37.12_-005.90 LATLON - 100 ft / 30 m 37.11996˚ -5.90275˚ 18 nm 23 nm 198° / 198° -
+36.82_-006.02 LATLON - 100 ft / 30 m 36.82167˚ -6.02250˚ 18 nm 41 nm 198° / 198° -
O LEJR APT - 0 ft / 0 m 36.75427˚ -6.05541˚ 4 nm 46 nm 201° / 201° -

Altitude Profile

Advertisement - Login to hide

LEZL

Details ICAO LEZL (SVQ)
Name Sevilla
Region Spain
Timezone Europe/Madrid (UTC+2.0)
Stats Elevation 111 ft / 34 m (AMSL)
Location 37.417939° -5.893093°
Runways 1
Magnetic Variation 1.245° W

METAR

LEZL 232230Z 21008KT 190V250 CAVOK 20/13 Q1014 NOSIG

Decode

TAF

TAF LEZL 232000Z 2321/2421 22006KT 9999 SCT035 TX22/2416Z TN15/2405Z TEMPO 2401/2416 4000 SHRA SCT030TCU PROB40 TEMPO 2401/2407 2000 TSRA SCT030CB

Decode

Departure Runways

ID Width Length Bearing (true) Bearing (mag) Surface Threshold Offset Overrun Length
09 148 ft / 45 m 11,008 ft / 3,355 m 89.75° 91.00° Asphalt 0 ft / 0 m 0 ft / 0 m
27 148 ft / 45 m 11,008 ft / 3,355 m 269.77° 271.02° Asphalt 0 ft / 0 m 0 ft / 0 m

LEJR

Details ICAO LEJR (XRY)
Name Jerez
Region Spain
Timezone Europe/Madrid (UTC+2.0)
Stats Elevation 93 ft / 28 m (AMSL)
Location 36.744622° -6.060110°
Runways 2
Magnetic Variation 1.287° W

METAR

LEJR 232230Z AUTO 26004KT 230V300 CAVOK 18/15 Q1015

Decode

TAF

TAF LEJR 231700Z 2318/2418 27009KT CAVOK TX21/2412Z TN14/2406Z PROB40 TEMPO 2323/2406 2000 TSRA SCT020CB PROB40 TEMPO 2406/2412 4000 SHRA SCT020TCU FEW025CB

Decode

Destination Runways

ID Width Length Bearing (true) Bearing (mag) Surface Threshold Offset Overrun Length
02 148 ft / 45 m 7,559 ft / 2,304 m 21.34° 22.63° Asphalt 0 ft / 0 m 0 ft / 0 m
03 148 ft / 45 m 7,559 ft / 2,304 m 21.34° 22.63° Asphalt 0 ft / 0 m 0 ft / 0 m
20 148 ft / 45 m 7,559 ft / 2,304 m 201.34° 202.63° Asphalt 0 ft / 0 m 0 ft / 0 m
21 148 ft / 45 m 7,559 ft / 2,304 m 201.34° 202.63° Asphalt 0 ft / 0 m 0 ft / 0 m

Approach Navaids

Runway Type Ident Frequency Range Bearing (true) Bearing (mag) Slope Elevation
20 Localiser IJR 108.90 MHz 18 nm / 33 km 201.34° 202.63° - 68 ft / 21 m (AMSL)
20 Glidescope IJR 108.90 MHz 10 nm / 19 km 201.34° 202.63° 3.00° 93 ft / 28 m (AMSL)
20 DME IJR 108.90 MHz 18 nm / 33 km - - - 93 ft / 28 m (AMSL)

Popular Alternatives